Home   Weather   Farsund   Past weeks

Flag for Norway Past Weather in Farsund, Norway — Yesterday and Last 2 Weeks

Now
41 °F

Quite cool.


Feels Like: 38 °F
Forecast: 38 / 46 °F
Wind: 5 mph from North

Location: Lista Fyr

Current Time: Apr 26, 2017 at 2:52:07 am

Latest Report: Apr 26, 2017 at 12:00 am


Visibility: N/A

Pressure: 29.73 "Hg

Humidity: 47%

Dew Point: 22 °F

Location of FarsundLocation

Past Weather in Farsund — Graph

°F

Farsund Temperature Yesterday

Maximum temperature yesterday: 49 °F (at 4:00 pm)
Minimum temperature yesterday: 35 °F (at 4:00 am)
Average temperature yesterday: 41 °F

High & Low Weather Summary for the Past Weeks

 TemperatureHumidityPressure
High49 °F (Apr 25, 4:00 pm)98% (Apr 11, 10:00 pm)30.61 "Hg (Apr 11, 10:00 pm)
Low32 °F (Apr 16, 6:00 am)38% (Apr 25, 4:00 pm)29.47 "Hg (Apr 24, 6:00 am)
Average41 °F79%29.93 "Hg
* Reported Apr 11 12:00 am — Apr 26 12:00 am, Farsund, Weather by CustomWeather, © 2017

Note: Actual official high and low records may vary slightly from our data, if they occured in-between our weather recording intervals... More about our weather records

Advertising

Farsund Weather History for the Previous 24 Hours

Scroll right to see more
 ConditionsComfort  
Time TempWeatherWind HumidityBarometerVisibility
12:00 am
Wed, Apr 26
41 °FQuite cool.5 mph47%29.73 "HgN/A
11:00 pm
Tue, Apr 25
40 °FQuite cool.2 mph49%29.71 "HgN/A
10:00 pm42 °FQuite cool.5 mph46%29.70 "HgN/A
9:00 pm44 °FQuite cool.6 mph46%29.67 "HgN/A
8:00 pm46 °FCool.7 mph47%29.65 "HgN/A
7:00 pm48 °FCool.8 mph46%29.63 "HgN/A
6:00 pm49 °FCool.3 mph39%29.62 "HgN/A
5:00 pm47 °FCool.3 mph55%29.61 "HgN/A
4:00 pm49 °FCool.2 mph38%29.59 "HgN/A
3:00 pm45 °FQuite cool.5 mph43%29.57 "HgN/A
2:00 pm45 °FOvercast.3 mph42%29.55 "Hg22 mi
1:00 pm44 °FQuite cool.3 mph46%29.54 "HgN/A
12:00 pm43 °FQuite cool.3 mph47%29.53 "HgN/A
11:00 am44 °FScattered clouds.5 mph44%29.50 "Hg22 mi
10:00 am41 °FQuite cool.5 mph63%29.50 "HgN/A
9:00 am40 °FChilly.6 mph65%29.50 "HgN/A
8:00 am37 °FScattered clouds.7 mph80%29.47 "Hg12 mi
7:00 am36 °FChilly.6 mph82%29.47 "HgN/A
6:00 am36 °FChilly.7 mph86%29.47 "HgN/A
5:00 am36 °FChilly.7 mph84%29.47 "HgN/A
4:00 am35 °FChilly.8 mph90%29.50 "HgN/A
3:00 am37 °FChilly.9 mph83%29.50 "HgN/A
2:00 am37 °FChilly.9 mph85%29.54 "HgN/A
Weather by CustomWeather, © 2017

See weather overviewHow to use our weather pages